SCP
0 0 0 0 0 0 0 0 0 0 0 0 0 0 0 0 0 0 0 0 0 0 0 0 0 0 0 0 0 0 0 0 0 0 0 0 0 0 0 0 0 0 0 0
0 0 0 0 0 0 0 0 0 0 0 0 0 0 0 0 0 0 0 0 0 0 0 0 0 0 0 0 0 0 0 0 0 0 0 0 0 0 0 0 0 0 0 0
0 0 0 0 0 0 0 0 0 0 0 0 0 0 0 0 0 0 0 0 0 0 0 0 0 0 0 0 0 0 0 0 0 0 0 0 0 0 0 0 0 0 0 0
0 0 0 0 0 0 0 0 0 0 0 0 0 0 0 0 0 0 0 0 0 0 0 0 0 0 0 0 0 0 0 0 0 0 0 0 0 0 0 0 0 0 0 0
0 0 0 0 0 0 0 0 0 0 0 0 0 0 0 0 0 0 0 0 0 0 0 0 0 0 0 0 0 0 0 0 0 0 0 0 0 0 0 0 0 0 0 0
0 0 0 0 0 0 0 0 0 0 0 0 0 0 0 0 0 -0 -0 0 0 0 0 0 0 0 0 0 0 0 0 0 0 0 0 0 0 0 0 0 0 0 0 0
0 0 0 0 0 0 0 0 0 0 0 0 0 0 0 0 0 0 0 0 0 0 0 0 0 0 0 0 0 0 0 0 0 0 0 0 0 0 0 0 0 0 0 0
0 0 0 0 0 0 0 0 0 0 0 0 0 0 0 0 0 0 0 0 0 0 0 0 0 0 0 0 0 0 0 0 0 0 0 0 0 0 0 0 0 0 0 0
0 0 0 0 0 0 0 0 0 0 0 0 0 0 0 0 0 0 0 0 0 0 0 0 0 0 0 0 0 0 0 0 0 0 0 0 0 0 0 0 0 0 0 0
0 0 0 0 0 0 0 0 0 0 0 0 0 0 0 0 0 0 0 0 0 0 0 0 0 0 0 0 0 0 0 0 0 0 0 0 0 0 0 0 0 0 0 0
0 0 0 0 0 0 0 0 0 0 0 0 0 0 0 0 0 0 0 0 0 0 0 0 0 0 0 0 0 0 0 0 0 0 0 0 0 0 0 0 0 0 0 0
0 0 0 0 0 0 0 0 0 0 0 0 0 0 0 0 0 0 0 0 0 0 0 0 0 0 0 0 0 0 0 0 0 0 0 0 0 0 0 0 0 0 0 0
0 0 0 0 0 0 0 0 0 0 0 0 0 0 0 0 0 0 0 0 0 0 0 0 0 0 0 0 0 0 0 0 0 0 0 0 0 0 0 0 0 0 0 0
0 0 0 0 0 0 0 0 0 0 0 0 0 0 0 0 0 0 0 0 0 0 0 0 0 0 0 0 0 0 0 0 0 0 0 0 0 0 0 0 0 0 0 0
0 0 0 0 0 0 0 0 0 0 0 0 0 0 0 0 0 0 0 0 0 0 0 0 0 0 0 0 0 0 0 0 0 0 0 0 0 0 0 0 0 0 0 0
0 0 0 0 0 0 0 0 0 0 0 0 0 0 0 0 0 0 0 0 0 0 0 0 0 0 0 0 0 0 0 0 0 0 0 0 0 0 0 0 0 0 0 0
0 0 0 0 0 0 0 0 0 0 0 0 0 0 0 0 0 0 0 0 0 0 0 0 0 0 0 0 0 0 0 0 0 0 0 0 0 0 0 0 0 0 0 0
0 0 0 0 0 0 0 0 0 0 0 0 0 0 0 0 0 0 0 0 0 0 0 0 0 0 0 0 0 0 0 0 0 0 0 0 0 0 0 0 0 0 0 0
0 0 0 0 0 0 0 0 0 0 0 0 0 0 0 0 0 0 0 0 0 0 0 0 0 0 0 0 0 0 0 0 0 0 0 0 0 0 0 0 0 0 0 0
0 0 0 0 0 0 0 0 0 0 0 0 0 0 0 0 0 0 0 0 0 0 0 0 -0 -0 -0 -0 -0 -0 0 0 0 0 0 0 0 0 0 0 0 0 0 0
0 0 0 0 0 0 0 0 0 0 0 0 0 0 0 0 0 0 0 0 0 0 0 0 0 0 0 0 -0 -0 -0 -0 0 0 0 0 0 0 0 0 0 0 0 0
0 0 0 0 0 0 0 0 0 0 0 0 0 0 0 0 0 0 0 0 0 0 0 0 0 0 0 0 0 -0 -0 -0 0 0 0 0 0 0 0 0 0 0 0 0
0 0 0 0 0 0 0 0 0 0 0 0 0 0 0 0 0 0 0 0 0 0 0 0 0 0 0 0 0 0 0 -0 -0 0 0 0 0 0 0 0 0 0 0 0
0 0 0 0 0 0 0 0 0 0 0 0 0 0 0 0 0 0 0 0 0 0 0 0 0 0 0 0 0 0 0 0 -0 0 0 0 0 0 0 0 0 0 0 0
0 0 0 0 0 0 0 0 0 0 0 0 0 0 0 0 0 0 0 0 0 0 0 0 0 0 0 0 0 0 0 0 -0 -0 -0 0 0 0 0 0 0 0 0 0
0 0 0 0 0 0 0 0 0 0 0 0 0 0 0 0 0 0 0 0 0 0 0 0 0 0 0 0 0 0 0 0 -0 -0 -0 0 0 0 0 0 0 0 0 0
Wind_Speed
3 4 9 16 18 12 7 8 11 12 10 6 12 18 17 18 17 19 18 18 21 22 24 18 11 8 10 12 15 17 18 16 14 13 13 12 14 12 11 10 11 12 11 12
3 9 16 8 2 4 6 10 13 12 9 7 13 20 14 16 20 22 22 21 22 20 18 17 11 7 9 11 14 15 17 18 18 16 14 8 7 6 7 6 8 10 12 13
12 7 7 7 4 6 9 10 13 12 7 6 10 13 9 13 14 17 20 20 20 19 19 18 13 6 6 10 13 14 17 18 19 14 9 6 5 4 5 7 9 10 13 13
9 6 4 6 8 11 14 12 12 10 7 7 3 16 7 12 11 15 20 17 17 15 12 13 12 9 7 11 12 14 14 16 16 16 16 18 15 15 14 11 12 12 14 14
8 4 6 9 12 12 13 5 5 5 5 6 4 12 11 7 8 14 16 15 15 10 8 9 9 10 8 7 8 8 10 13 14 16 18 18 15 11 7 6 10 11 11 13
8 4 7 10 6 8 5 1 2 3 1 9 8 11 13 6 10 9 10 9 8 8 8 9 8 8 6 4 2 5 8 10 12 16 16 18 16 12 11 11 13 12 9 10
5 5 5 4 3 2 5 4 3 5 2 11 4 8 13 9 8 7 8 9 9 8 8 9 11 10 9 5 2 3 6 8 10 13 15 16 15 15 17 15 15 14 10 11
5 9 7 6 9 7 6 9 8 7 8 9 3 12 12 8 7 7 9 9 9 9 7 7 9 8 8 5 2 4 6 7 8 11 12 10 11 10 10 12 12 14 13 13
7 9 2 4 5 8 6 8 8 7 7 12 12 12 11 4 8 9 8 7 7 7 7 8 8 8 7 6 4 5 6 7 8 10 10 10 11 11 11 10 9 10 9 10
3 9 6 3 0 3 7 4 3 6 7 10 12 14 14 7 7 7 6 6 8 9 9 10 9 10 10 8 5 3 5 7 7 8 10 10 11 12 10 8 12 12 11 12
5 8 8 4 9 11 7 6 7 7 6 7 8 13 7 3 4 7 9 12 13 13 15 15 15 15 14 13 11 8 7 6 6 7 8 10 10 9 9 9 11 12 11 13
10 8 11 11 8 6 9 11 11 9 11 9 9 12 10 9 8 9 11 12 14 16 17 17 17 17 18 18 16 14 11 9 8 8 8 10 9 8 11 13 13 13 14 15
6 7 9 6 3 1 3 4 5 6 7 10 14 11 9 11 12 13 14 15 15 16 17 18 18 18 17 16 15 15 13 12 11 10 9 10 10 11 14 16 14 13 14 14
7 8 12 14 10 5 6 7 6 7 9 12 13 15 13 16 16 14 13 13 13 15 16 17 17 17 16 15 14 14 13 12 13 13 11 11 12 14 16 14 12 13 14 15
3 9 11 15 14 11 12 14 14 16 17 17 19 20 8 8 11 11 11 11 14 16 17 17 17 15 16 17 16 16 15 14 14 14 13 12 12 12 12 11 12 13 15 16
3 5 4 8 10 10 15 17 20 21 19 17 19 9 7 5 8 10 9 10 13 14 14 14 15 15 16 17 17 17 16 16 14 14 14 13 12 10 10 11 11 12 14 13
3 4 4 7 7 7 12 12 13 9 3 3 4 2 3 5 10 11 7 8 12 13 11 11 13 14 14 15 15 16 16 15 14 14 14 14 14 12 10 9 10 13 13 13
8 6 4 5 2 12 8 1 0 2 4 5 6 2 4 6 7 7 6 6 8 10 10 10 10 12 12 13 13 14 15 14 14 13 13 13 14 13 11 8 10 11 10 13
13 9 5 4 7 10 3 2 2 3 4 5 5 5 6 7 6 5 7 5 7 8 8 8 8 9 11 12 13 15 15 15 14 13 14 14 14 14 12 10 9 8 8 10
1 8 9 7 7 9 6 5 4 3 5 7 6 7 7 4 5 7 7 6 8 8 7 8 7 8 10 10 11 14 15 15 15 15 16 15 14 13 13 11 9 7 8 9
1 1 6 8 7 9 6 4 1 2 6 7 8 9 8 7 9 9 11 10 9 9 9 8 8 9 9 9 10 14 14 14 15 16 17 17 15 14 13 11 7 6 7 7
6 4 5 3 4 10 5 3 5 9 6 6 9 11 12 12 11 11 12 13 11 10 11 9 8 11 10 8 9 14 15 14 14 16 18 18 17 14 10 10 8 6 7 8
8 9 7 10 11 7 7 10 10 8 9 10 10 12 12 11 12 12 12 13 13 12 10 8 9 12 12 8 7 12 15 14 15 17 19 18 18 15 11 10 9 7 8 8
8 6 7 9 12 12 13 13 12 11 12 13 12 11 9 11 12 12 12 13 13 12 11 9 9 12 15 10 9 10 13 13 14 17 19 18 17 17 13 9 9 9 10 10
10 7 8 13 14 12 13 15 14 13 12 11 10 8 7 7 10 11 12 13 14 15 13 9 10 14 16 14 13 10 9 11 15 18 18 17 16 16 14 11 11 12 12 12
10 10 11 14 14 12 10 9 8 8 7 5 5 6 6 6 11 13 13 14 14 15 13 13 14 16 16 15 17 13 9 10 15 18 17 14 13 13 13 12 11 20 20 22
Wind_Direction
150 138 204 216 210 217 230 244 252 251 262 266 252 258 259 270 275 270 263 261 264 266 267 269 257 224 210 204 201 202 198 195 181 184 186 187 194 193 194 195 189 182 175 171
97 231 228 235 208 240 259 268 269 274 269 259 268 269 259 250 254 259 264 263 262 263 274 277 270 231 212 207 204 202 200 193 190 193 193 189 180 187 193 182 177 178 174 173
205 229 225 221 221 230 237 231 249 257 311 311 295 279 221 244 246 258 260 261 265 267 273 282 292 283 233 219 206 205 202 196 194 183 167 144 126 116 163 183 186 186 181 179
241 260 200 190 216 209 252 230 245 272 297 283 291 293 212 223 242 255 259 263 266 271 277 286 296 298 246 228 215 209 199 194 189 178 180 179 188 193 192 188 188 184 184 183
241 219 193 211 224 200 237 255 247 256 248 279 202 265 285 190 234 253 257 261 269 286 298 298 297 291 272 245 225 208 193 191 186 186 190 191 198 199 171 165 174 180 185 186
252 230 204 215 230 207 219 32 22 47 57 275 207 221 284 187 212 242 259 270 292 306 315 317 312 309 311 312 251 198 188 191 186 190 193 198 199 184 170 175 180 183 184 188
283 249 238 194 209 177 149 140 335 321 284 255 204 228 258 242 235 232 268 289 298 310 320 322 328 331 330 328 286 202 191 193 190 195 202 204 202 194 193 188 186 184 183 192
279 278 229 201 197 186 185 166 186 228 250 277 240 244 252 244 266 270 270 278 296 304 312 315 318 323 324 316 260 210 205 202 195 203 210 209 205 205 206 195 192 191 194 195
230 262 269 196 205 159 171 207 209 219 252 276 268 267 290 251 278 277 282 296 303 313 318 318 322 327 324 314 265 217 212 211 204 208 210 212 208 211 211 197 191 195 193 184
203 271 268 278 143 237 205 204 140 185 216 239 260 269 269 279 266 292 319 334 333 328 325 331 338 342 342 337 324 282 240 229 218 212 216 220 216 215 210 194 199 198 191 181
182 242 274 244 211 222 189 193 204 209 205 220 241 255 249 293 359 353 337 330 329 342 352 360 5 6 2 360 355 340 316 293 272 246 235 233 227 217 209 206 206 200 191 186
199 224 254 247 232 218 212 214 203 223 237 228 243 258 295 323 340 350 350 356 5 13 13 11 9 11 12 10 4 359 346 324 297 276 256 244 237 220 216 217 210 200 196 193
188 218 257 261 263 122 236 247 242 261 266 253 259 265 299 328 352 20 28 25 21 16 10 6 4 3 2 1 359 358 354 344 328 303 273 255 239 227 226 225 216 206 201 197
275 237 245 261 271 290 269 274 281 274 265 267 262 280 306 330 349 16 23 17 14 11 6 1 357 354 351 350 349 349 346 345 339 326 300 274 253 238 234 228 216 208 204 201
246 257 258 267 276 278 279 281 278 269 267 271 278 283 323 3 356 359 4 11 10 4 359 353 348 343 341 341 341 342 341 342 338 334 323 299 276 256 244 230 218 209 206 206
329 279 289 278 276 276 276 270 266 268 266 263 267 264 50 352 351 348 354 358 356 351 345 340 337 335 336 336 335 334 335 335 332 331 330 322 305 280 255 238 222 213 209 204
253 251 266 266 287 316 264 248 251 248 273 296 264 88 348 342 343 330 321 333 336 334 330 329 329 330 328 328 328 328 327 326 327 327 329 331 323 307 280 252 227 218 210 203
223 220 236 265 318 247 241 85 133 156 121 107 117 179 259 270 283 273 248 292 317 321 319 318 318 320 320 319 321 323 322 322 323 323 327 330 326 315 297 267 241 227 212 208
220 219 210 213 235 264 247 222 175 178 202 177 180 230 251 266 285 250 234 277 295 295 295 297 299 305 310 312 319 322 320 321 322 323 325 326 323 314 303 279 253 232 218 214
194 214 224 217 225 240 223 204 214 165 247 211 213 246 255 281 304 284 283 287 289 285 284 288 291 296 301 305 316 317 316 319 320 322 321 318 314 308 299 284 262 236 222 221
325 210 221 229 239 261 241 217 145 190 251 217 235 250 243 233 238 261 284 288 279 277 280 284 288 293 293 301 311 310 310 313 316 317 315 313 310 304 296 286 262 235 220 214
207 216 221 175 211 258 231 179 214 230 240 241 248 247 241 242 251 262 272 278 281 282 283 285 288 290 293 298 302 302 304 311 315 314 311 309 308 302 291 278 261 236 219 212
215 202 193 193 217 236 207 219 237 242 259 265 260 253 244 250 262 269 273 278 282 281 282 285 283 288 293 292 292 296 305 315 315 312 308 307 304 297 284 268 253 232 220 220
233 210 221 244 254 256 255 256 260 260 261 264 261 253 244 252 268 276 279 283 285 287 286 286 284 288 292 296 296 293 306 314 311 304 302 301 299 294 283 261 244 229 219 219
225 208 229 249 260 261 255 254 258 261 258 258 257 250 251 265 279 284 285 284 286 289 291 289 287 289 293 299 298 300 307 309 302 297 293 293 289 286 282 263 243 234 227 219
220 219 236 252 254 253 260 255 260 264 267 276 289 297 299 291 288 290 286 287 289 291 294 296 295 294 295 298 297 299 299 292 290 290 289 287 286 284 280 272 260 246 238 235